Weather History for Jaipur, India

Change the Weather History Date:

Wednesday, July 10, 2013

  Actual Average Record
Temperature  
Mean Temperature 86 °F -  
Max Temperature 95 °F - - ()
Min Temperature 78 °F - - ()
Cooling Degree Days 22    
Growing Degree Days 36 (Base 50)    
Moisture  
Dew Point 77 °F    
Average Humidity 72    
Maximum Humidity 94    
Minimum Humidity 45    
Precipitation  
Precipitation 0.00 in - - ()
Sea Level Pressure  
Sea Level Pressure 29.48 in    
Wind  
Wind Speed 5 mph ()    
Max Wind Speed 14 mph    
Max Gust Speed -    
Visibility 2.3 miles    
Events      
T = Trace of Precipitation, MM = Missing Value Source: Averaged Metar Reports

Daily Weather History Graph

Daily Weather History Graph

Search for Another Location

Airport:

Trip Planner

Search our weather history database for the weather conditions in past years. The results will help you decide how hot, cold, wet, or windy it might be!

Date:

Astronomy

Jul. 10, 2013 Rise Set
Actual Time 5:40 AM IST 7:23 PM IST
Civil Twilight 5:14 AM IST 7:49 PM IST
Nautical Twilight 4:42 AM IST 8:21 PM IST
Astronomical Twilight 4:10 AM IST 8:53 PM IST
Moon 7:20 AM IST (7/10) 8:36 PM IST (7/10)
Length of Visible Light 14h 35m
Length of Day
13h 43m
Waxing Crescent, 4% of the Moon is Illuminated
Jul 10
Waxing Crescent
Jul 16
First Quarter
Jul 22
Full
Jul 29
Last Quarter
Aug 7
New

Hourly Weather History & Observations

Time (IST) Temp. Heat Index Dew Point Humidity Pressure Visibility Wind Dir Wind Speed Gust Speed Precip Events Conditions
12:00 AM 82.4 °F 92.4 °F 78.8 °F 89% 29.53 in 1.9 mi South 3.5 mph - N/A   Scattered Clouds
1:00 AM 80.6 °F 88.1 °F 78.8 °F 94% 29.53 in 1.9 mi SE 3.5 mph - N/A   Scattered Clouds
4:00 AM 78.8 °F - 77.0 °F 94% 29.50 in 1.9 mi Variable 3.5 mph - N/A   Scattered Clouds
5:00 AM 78.8 °F - 77.0 °F 94% 29.50 in 1.9 mi South 3.5 mph - N/A   Scattered Clouds
5:30 AM 80 °F - 78 °F 91% 29.44 in 1 mi SW 3.5 mph - -   Mist
5:30 AM 78.8 °F - 77.0 °F 94% 29.50 in 1.9 mi Variable 3.5 mph - N/A   Scattered Clouds
6:00 AM 78.8 °F - 77.0 °F 94% 29.50 in 1.9 mi SW 3.5 mph - N/A   Scattered Clouds
7:00 AM 80.6 °F 87.1 °F 77.0 °F 89% 29.53 in 1.9 mi West 4.6 mph - N/A   Scattered Clouds
8:00 AM 82.4 °F 92.4 °F 78.8 °F 89% 29.56 in 1.9 mi West 8.1 mph - N/A   Partly Cloudy
8:30 AM 83 °F - 77 °F 78% 29.48 in 1 mi West 4.6 mph - -   Mist
9:00 AM 84.2 °F 94.1 °F 77.0 °F 79% 29.56 in 1.9 mi West 10.4 mph - N/A   Partly Cloudy
10:00 AM 86.0 °F 96.9 °F 77.0 °F 74% 29.56 in 2.5 mi WNW 11.5 mph - N/A   Haze
11:00 AM 89.6 °F 102.2 °F 77.0 °F 66% 29.56 in 2.5 mi WNW 11.5 mph - N/A   Haze
11:30 AM 89 °F - 75 °F 56% 29.47 in 2 mi WNW 6.9 mph - -   Haze
1:00 PM 91.4 °F 105.1 °F 77.0 °F 63% 29.53 in 3.1 mi WNW 8.1 mph - N/A   Haze
2:00 PM 91.4 °F 105.1 °F 77.0 °F 63% 29.50 in 3.1 mi WNW 6.9 mph - N/A   Haze
2:30 PM 93 °F - 76 °F 50% 29.41 in 2 mi Calm Calm - -   Haze
2:30 PM 93.2 °F 107.2 °F 77.0 °F 59% 29.47 in 3.1 mi WNW 5.8 mph - N/A   Haze
3:00 PM 93.2 °F 107.2 °F 77.0 °F 59% 29.47 in 3.1 mi West 6.9 mph - N/A   Haze
3:30 PM 93.2 °F 105.0 °F 75.2 °F 56% 29.47 in 3.1 mi West 6.9 mph - N/A   Haze
4:00 PM 93.2 °F 105.0 °F 75.2 °F 56% 29.44 in 3.1 mi WSW 6.9 mph - N/A   Haze
5:00 PM 93.2 °F 107.2 °F 77.0 °F 59% 29.42 in 3.1 mi WSW 6.9 mph - N/A   Haze
5:30 PM 94 °F - 75 °F 45% 29.35 in 2 mi WSW 6.9 mph - -   Haze
5:30 PM 93.2 °F 107.2 °F 77.0 °F 59% 29.42 in 3.1 mi WSW 6.9 mph - N/A   Haze
6:00 PM 91.4 °F 105.1 °F 77.0 °F 63% 29.44 in 2.5 mi SSW 5.8 mph - N/A   Haze
7:00 PM 89.6 °F 102.2 °F 77.0 °F 66% 29.44 in 2.5 mi Variable 1.2 mph - N/A   Haze
8:00 PM 89.6 °F 102.2 °F 77.0 °F 66% 29.47 in 2.5 mi SSW 4.6 mph - N/A   Haze
8:30 PM 89 °F - 77 °F 61% 29.38 in 2 mi SW 4.6 mph - -   Haze
9:00 PM 87.8 °F 99.7 °F 77.0 °F 70% 29.50 in 2.5 mi SSW 3.5 mph - N/A   Haze
10:00 PM 87.8 °F 99.7 °F 77.0 °F 70% 29.53 in 2.5 mi SSW 6.9 mph - N/A   Haze
11:00 PM 82.4 °F 89.5 °F 75.2 °F 79% 29.56 in 2.5 mi SSE 13.8 mph - N/A   Haze
11:30 PM 81 °F - 74 °F 75% 29.49 in 2 mi SSE 6.9 mph - -   Haze